SES-11

operational
NORAD ID: 42967 Int'l Des: 2017-063 Owner: SESSA Country: L
HEOCIRCULARGSOGEO

Über SES-11

Beschreibung wird geladen...

Live-Position

3D-Globus wird geladen...

Nächste Überflüge

Höhenverlauf

Altitude vs Time

uPlot chart will show altitude changes over time

Zweizeiliger Elementsatz

1 42967U 17063A 26072.54935153 -.00000090 00000-0 00000-0 0 9997
2 42967 0.0278 54.8467 0002474 299.7586 269.3910 1.00272828 30760
Epoch: 13. März 2026 • Age: 26 hours

Aktueller Status

Höhe 35787.5 km
Geschwindigkeit 3.07 km/s
Subsatellitenpunkt -0.00°S, 104.91°W
Startdatum 11. Okt. 2017
Alter 8.4 years
Typ communications

Technische Details

Klassifizierung Payload
Masse 5300.00 kg
Trockenmasse 3000.00 kg
Gesamtmasse 5300.00 kg
Länge 7.00 m
Durchmesser 3.30 m
Spannweite 35.00 m
Form Box + 2 pan
Hersteller ADSB
Bus-Typ Eurostar 3000
Phasenstatus In Orbit
Besitzer/Staat SESSA/L

Große Konstellationen

Loading constellations...